CZ-6A DEB, 54548

Orbit data source: Space-Track

CZ-6A DEB, 54548 is space debris in SSO originally from a launch on Fri, 11 Nov 2022 UTC launched from the Taiyaun Space Center, China (TSC). Debris objects in space refer to the collection of defunct objects orbiting the Earth. Examples of debris include non-operational satellites, rocket bodies, and fragments generated from explosions, collisions, or faulty payload assembly.

Loading next visibility...
Identifier
54548, 2022-151KY
Orbit
SSO
Country
Flag of CNCN / PRC
Related business
Manufacturer
SAST
Mission
Spacecraft
Bus & Motor
Unknown
Mass
Unknown
Launch date (UTC)
2022-11-11 (4 years ago)
Launch vehicle
Unknown
Launch site
Taiyaun Space Center, China (TSC)
Object type
Payload
Rocket body
Debris
Shape & HBR
Unknown shape, 0.1 m
Radar Cross Section
Medium (>0.1 m² and <1 m²)

Expand to show TLE details & history
Last TLE update: 2 days ago

TLE from 2 days ago
0 CZ-6A DEB
1 54548U 22151KY  26171.44022459  .00016911  00000-0  23276-2 0  9994
2 54548  98.5898 229.0323 0028829 248.4483 111.3653 14.78057165190552
Epoch: 2026-06-20T10:33Z
TLE epoch observation values (Epoch: 2026-06-20T10:33:55.404Z)
Latitude
0.00002°
Longitude
161.89663°
Altitude
645.879 km
Speed
7.531 km/s
True Right ascension
15h 16m 07s
True Declination
0° 00' 00"
Sunlit
Object was in full shadow at epoch
Visualization orbit readout
Latitude
Unknown
Longitude
Unknown
Altitude
Unknown
Speed
Unknown
Apparent Right ascension
Unknown
Apparent Declination
Unknown
Sunlit
N/A
Visualization observer readout
Local Sidereal Time
21:24:36
Azimuth
Unknown
Elevation
Unknown
Doppler factor
Unknown
Orbital elements
Apogee altitude
652.75 km
Perigee altitude
612.328 km
Semi-major axis
7,010.676 km
Eccentricity
0.00288
Inclination
98.5898°
RAAN
229.0323°
Arg. of periapsis
248.4483°
True anomaly
111.67255°
Mean anomaly
111.3653°
Eccentric anomaly
111.51896°
Mean motion
3.69746 °/min
Orbital period
97.36 mins
BSTAR
0.0023276
Loading maneuver chart data...
Computing Atmospheric mass density...
Loading historical data...
Loading historical data...
Loading historical data...
Loading historical data...
Loading historical data...
Loading historical data...
Loading historical data...

Documentation

Showing up to 5 results
|